Weather Roundup
Issued by NWS Springfield, MO

Home | Current Version | Previous Version | Text Only | Print | Product List | Glossary On
Versions: 1 2 3 4 5 6 7 8 9 10 11 12 13 14 15 16 17 18 19 20 21 22 23 24 25 26 27 28 29 30 31 32 33 34 35 36 37 38 39 40 41 42 43 44 45 46 47 48 49 50
000
NZUS99 KSGF 301659
HRRSGF

HOURLY WEATHER
NATIONAL WEATHER SERVICE SPRINGFIELD MO
1200 PM CDT WED JUL 30 2014

......SGF CWA......

CITY           SKY/WX    TMP DP  RH WIND       PRES   REMARKS
SPRINGFIELD    LGT RAIN  70  63  78 SW7       30.12R
JOPLIN         LGT RAIN  67  66  97 VRB5      30.13R FOG
WEST PLAINS    CLOUDY    73  62  68 SW6       30.13S
ROLLA          CLOUDY    72  59  63 NE5       30.11S
OSAGE BEACH    CLOUDY    70  61  73 CALM      30.12R
BRANSON        HVY RAIN  66  64  94 CALM      30.14R VSB 1

......SURROUNDING SGF CWA......

CITY           SKY/WX    TMP DP  RH WIND       PRES   REMARKS
CHANUTE        LGT RAIN  71  66  84 N6        30.12S
PARSONS        CLOUDY    73  64  73 SE3       30.11F
COFFEYVILLE    CLOUDY    74  65  73 E5        30.10R
EMPORIA        LGT RAIN  65  63  93 NE8       30.15S
SILOAM SPRINGS CLOUDY    72  63  73 SW12      30.14S
HARRISON AR    LGT RAIN  68  67  96 S6        30.13S FOG
NEAR YELLVILLE CLOUDY    70  64  83 CALM      30.12S

......KANSAS AND MISSOURI......

CITY           SKY/WX    TMP DP  RH WIND       PRES   REMARKS
KANSAS CTY INT CLOUDY    75  59  57 VRB3      30.14R
DOWNTOWN KC    CLOUDY    77  58  51 CALM      30.12S
COLUMBIA       CLOUDY    78  57  48 VRB5      30.12S
SEDALIA        CLOUDY    74  63  68 CALM      30.13R
ST JOSEPH      PTSUNNY   77  58  51 VRB3      30.14R
ST LOUIS       PTSUNNY   82  54  37 N3        30.10S
SPIRIT OF STL  PTSUNNY   80  52  37 VRB3      30.08F
KIRKSVILLE     PTSUNNY   76  56  49 NW6       30.13S
WICHITA        LGT RAIN  70  66  87 SE8       30.10F
TOPEKA         CLOUDY    74  59  59 VRB3      30.14S
OLATHE         CLOUDY    72  59  63 NE5       30.13R

......TENNESSEE......

CITY           SKY/WX    TMP DP  RH WIND       PRES   REMARKS
MEMPHIS        FAIR      80  56  43 SW6       30.12F
NASHVILLE      CLOUDY    79  57  46 CALM      30.13F

......ARKANSAS.......

CITY           SKY/WX    TMP DP  RH WIND       PRES   REMARKS
FAYETTEVILLE   LGT RAIN  70  69  97 SW8       30.13S
FT SMITH       LGT RAIN  72  69  90 SE3       30.12S
LITTLE ROCK    PTSUNNY   80  59  48 SW7       30.12S

......OKLAHOMA.......

CITY           SKY/WX    TMP DP  RH WIND       PRES   REMARKS
TULSA          RAIN      70  70 100 CALM      30.08F FOG
PONCA CITY     LGT RAIN  67  65  93 E9        30.08F FOG
MCALESTER      LGT RAIN  72  70  93 S6        30.11S FOG
OKLAHOMA CITY  LGT RAIN  70  66  87 S14G20    30.06S FOG

......IOWA............

CITY           SKY/WX    TMP DP  RH WIND       PRES   REMARKS
DES MOINES     MOSUNNY   76  54  46 N7        30.13S
QUAD CITIES    SUNNY     78  59  51 N7        30.08S

......ILLINOIS........

CITY           SKY/WX    TMP DP  RH WIND       PRES   REMARKS
QUINCY         MOSUNNY   77  56  48 NW8       30.10F
CHICAGO        MOSUNNY   77  52  41 NW10      30.04F



USA.gov is the U.S. government's official web portal to all federal, state and local government web resources and services.